Probability
0 0 0 0 0 0 0 0 0 0 0 0 0 0 0 0 0 0 0 0 0 0 0 0 0 0 0 0 0 0 0 0 0 0 0 0 0 0
0 0 0 0 0 0 0 0 0 0 0 0 0 0 0 0 0 0 0 0 0 0 0 0 0 0 0 0 0 0 0 0 0 0 0 0 0 0
0 0 0 0 0 0 0 0 0 0 0 0 0 0 0 0 0 0 0 0 0 0 0 0 0 0 0 0 0 0 0 0 0 0 0 0 0 0
0 0 0 0 0 0 0 0 0 0 0 0 0 0 0 0 0 0 0 0 0 0 0 0 0 0 0 0 0 0 0 0 0 0 0 0 0 0
0 0 0 0 0 0 0 0 0 0 0 0 0 0 0 0 0 0 0 0 0 0 0 0 0 0 0 0 0 0 0 0 0 0 0 0 0 0
0 0 0 0 0 0 0 0 0 0 0 0 0 0 0 0 0 0 0 0 0 0 0 0 0 0 0 0 0 0 0 0 0 0 0 0 0 0
0 0 0 0 0 0 0 0 0 0 0 0 0 0 0 0 0 0 0 0 0 0 0 0 0 0 0 0 0 0 0 0 0 0 0 0 0 0
0 0 0 0 0 0 0 0 0 0 0 0 0 0 0 0 0 0 0 0 0 0 0 0 0 0 0 0 0 0 0 0 0 0 0 0 0 0
0 0 0 0 0 0 0 0 0 0 0 0 0 0 0 0 0 0 0 0 0 0 0 0 0 0 0 0 0 0 0 0 0 0 0 0 0 0
0 0 0 0 0 0 0 0 0 0 0 0 0 0 0 0 0 0 0 0 0 0 0 0 0 0 0 0 0 0 0 0 0 0 0 0 0 0
0 0 0 0 0 0 0 0 0 0 0 0 0 0 0 0 0 0 0 0 0 0 0 0 0 0 0 0 0 0 0 0 0 0 0 0 0 0
0 0 0 0 0 0 0 0 0 0 0 0 0 0 0 0 0 0 0 0 0 0 0 0 0 0 0 0 0 0 0 0 0 0 0 0 0 0
0 0 0 0 0 0 0 0 0 0 0 0 0 0 0 0 0 0 0 0 0 0 0 0 0 0 0 0 0 0 0 0 0 0 0 0 0 0
0 0 0 0 0 0 0 0 0 0 0 0 0 0 0 0 0 0 0 0 0 0 0 0 0 0 0 0 0 0 0 0 0 0 0 0 0 0
0 0 0 0 0 0 0 0 0 0 0 0 0 0 0 0 0 0 0 0 0 0 0 0 0 0 0 0 0 0 0 0 0 0 0 0 0 0
0 0 0 0 0 0 0 0 0 0 0 0 0 0 0 0 0 0 0 0 0 0 0 0 0 0 0 0 0 0 0 0 0 0 0 0 0 0
0 0 0 0 0 0 0 0 0 0 0 0 0 0 0 0 0 0 0 0 0 0 0 0 0 0 0 0 0 0 0 0 0 0 0 0 0 0
0 0 0 0 0 0 0 0 0 0 0 0 0 0 0 0 0 0 0 0 0 0 0 0 0 0 0 0 0 0 0 0 0 0 0 0 0 0
0 0 0 0 0 0 0 0 0 0 0 0 0 0 0 0 0 0 0 0 0 0 0 0 0 0 0 0 0 0 0 0 0 0 0 0 0 0
0 0 0 0 0 0 0 0 0 0 0 0 0 0 0 0 0 0 0 0 0 0 0 0 0 0 0 0 0 0 0 0 0 0 0 0 0 0
0 0 0 0 0 0 0 0 0 0 0 0 0 0 0 0 0 0 0 0 0 0 0 0 0 0 0 0 0 0 0 0 0 0 0 0 0 0
0 0 0 0 0 0 0 0 0 0 0 0 0 0 0 0 0 0 0 0 0 0 0 0 0 0 0 0 0 0 0 0 0 0 0 0 0 0
0 0 0 0 0 0 0 0 0 0 0 0 0 0 0 0 0 0 0 0 0 0 0 0 0 0 0 0 0 0 0 0 0 0 0 0 0 0
Wind_Speed
7 7 5 4 4 3 3 4 5 3 4 4 3 2 2 2 4 2 3 9 13 14 15 15 16 17 17 18 19 20 20 21 21 22 23 24 24 24
6 7 6 4 4 4 3 3 3 4 4 3 4 3 2 3 5 3 4 11 12 15 16 16 16 17 18 19 19 20 20 21 22 23 23 23 24 24
7 8 7 6 5 4 4 3 3 3 4 3 2 2 2 3 4 3 4 4 6 14 16 16 17 17 18 19 19 20 21 22 22 23 23 24 24 24
9 8 7 6 6 5 4 5 4 4 4 4 3 2 4 4 4 4 4 5 4 12 15 16 17 18 18 18 20 21 21 21 22 22 23 23 24 24
10 10 9 8 7 5 5 5 4 4 3 3 3 2 3 2 3 4 4 4 5 9 13 14 16 17 18 19 20 20 20 21 21 22 22 22 23 23
9 9 9 10 9 8 6 6 5 4 3 3 3 3 3 3 2 3 4 3 4 5 8 10 13 16 18 19 20 20 20 20 21 21 22 22 22 22
7 7 8 10 11 9 7 6 6 4 3 3 4 3 3 2 3 3 4 4 5 4 4 5 6 6 8 14 17 18 19 20 20 21 22 22 22 22
8 7 7 8 11 13 12 11 9 7 6 4 4 4 5 4 4 3 4 4 5 2 2 5 4 6 6 6 14 19 19 20 20 20 21 21 22 22
8 7 5 6 9 6 8 10 10 11 10 6 5 6 5 5 4 4 4 5 5 4 2 5 4 6 6 8 17 18 19 19 20 20 20 21 21 22
7 8 7 6 6 6 5 4 5 5 7 5 5 6 5 5 5 5 4 4 5 4 3 5 3 4 6 6 14 17 18 19 19 19 20 20 20 20
5 6 6 6 9 9 6 5 4 4 6 8 8 8 9 10 7 2 2 3 5 3 2 3 3 4 4 5 8 14 17 18 19 19 19 19 19 18
4 4 7 7 9 9 6 5 5 4 3 2 4 5 4 6 8 3 3 3 4 4 2 2 3 3 5 3 4 5 7 14 18 18 18 19 19 11
5 4 4 9 9 9 7 5 6 3 3 2 2 2 2 2 3 2 3 3 4 5 3 2 2 2 4 5 4 4 4 6 7 9 13 17 19 15
5 4 5 8 8 8 5 5 5 3 1 1 1 2 2 2 3 3 4 4 5 6 5 3 3 3 4 5 6 4 4 5 5 6 6 13 15 17
4 6 7 8 7 5 4 4 2 2 2 1 2 2 2 2 2 2 3 3 4 5 5 4 5 4 4 5 6 5 5 5 4 5 6 7 7 7
4 5 6 5 3 3 3 2 1 2 2 2 2 2 1 1 2 1 2 2 3 4 4 4 4 4 4 6 6 7 5 5 6 7 7 7 7 6
5 3 3 3 2 2 1 1 1 1 1 1 1 1 2 2 2 1 1 1 2 3 4 3 3 4 7 6 5 6 6 6 6 7 7 9 8 7
6 4 4 4 3 3 2 2 1 2 2 2 2 2 2 2 2 2 1 1 3 3 3 3 3 4 4 4 7 6 5 5 6 7 6 7 9 7
4 4 4 4 3 3 3 3 2 2 2 2 2 2 2 2 2 2 2 2 3 3 3 2 2 2 4 5 6 4 4 6 7 7 6 6 8 10
3 4 4 3 3 3 3 2 2 2 2 2 2 2 2 2 2 2 2 3 3 3 3 2 2 2 3 4 5 6 8 6 5 7 7 6 7 11
3 3 3 3 3 3 3 3 3 3 3 2 2 2 2 2 2 3 3 5 4 2 3 4 4 6 3 3 4 5 6 9 9 7 7 7 7 6
3 3 3 3 3 3 3 2 3 3 3 3 3 3 2 2 3 4 3 3 3 3 3 4 4 3 1 2 5 6 7 7 10 12 10 8 5 6
3 3 2 2 2 2 2 3 3 3 3 3 3 3 3 3 3 3 3 3 2 3 3 3 3 2 2 2 4 5 7 7 5 6 6 10 13 13
Wind_Direction
185 184 183 184 177 176 164 160 163 210 258 251 249 245 235 241 273 279 282 299 312 313 312 312 312 313 314 314 313 312 311 311 311 310 309 308 308 308
178 179 187 181 177 175 174 171 169 178 229 242 233 240 247 258 273 277 276 300 306 308 309 310 311 312 313 314 312 311 311 311 310 310 309 308 308 307
180 184 192 178 177 179 173 173 181 171 217 254 241 242 244 255 277 281 275 277 286 300 304 308 310 310 311 312 312 311 310 310 310 310 310 309 308 308
186 184 191 180 185 181 179 188 193 191 196 238 249 241 243 248 258 272 277 276 272 291 300 305 307 309 311 312 311 310 310 310 310 310 310 309 308 308
185 187 189 180 190 188 188 194 199 201 198 216 246 239 254 256 270 272 271 275 281 287 296 302 305 308 309 311 312 311 310 310 309 309 309 310 310 309
187 189 187 187 192 189 193 199 194 195 201 221 246 250 252 257 252 269 284 269 278 284 288 295 299 305 308 310 311 311 310 309 309 310 311 311 311 310
186 190 193 195 197 194 194 193 186 193 199 218 242 254 254 252 251 247 269 284 275 262 276 285 292 290 295 300 306 306 307 310 311 312 312 312 312 311
187 189 193 198 206 210 215 209 197 194 201 207 229 240 253 245 246 250 264 290 292 255 254 275 271 277 281 278 295 303 308 312 313 313 313 313 313 312
184 182 188 201 203 200 215 218 218 223 218 206 219 233 242 238 242 257 252 253 259 260 255 271 259 271 279 289 300 304 310 314 314 313 314 315 314 314
182 183 186 189 194 188 188 199 215 224 228 222 220 233 236 237 231 244 255 261 261 258 234 268 269 268 284 283 293 302 312 315 316 316 316 317 317 317
178 178 180 185 202 196 182 196 219 240 247 247 248 254 261 269 268 250 265 281 288 272 226 250 277 285 279 272 286 301 312 316 318 318 319 320 319 320
166 178 194 196 201 198 184 187 215 231 217 240 259 277 283 286 288 261 228 256 279 285 248 248 276 307 301 273 273 287 299 309 317 318 319 321 321 321
173 182 199 207 207 207 203 195 218 218 194 208 235 259 274 275 273 256 224 219 248 258 255 251 268 260 264 292 287 275 281 296 306 307 315 318 320 320
179 183 192 199 203 204 206 214 223 224 163 173 229 254 259 260 260 257 251 240 238 249 261 243 251 256 274 288 290 291 294 291 292 296 302 313 316 317
169 177 182 189 189 190 203 206 191 157 160 200 239 248 244 246 256 274 277 275 274 268 264 242 242 256 258 273 285 291 304 298 291 298 304 306 303 306
140 157 160 161 151 161 169 168 144 168 182 212 238 242 239 245 252 250 270 299 303 299 287 270 262 255 262 263 270 285 287 289 303 308 306 301 297 292
136 124 130 142 147 148 146 159 162 181 222 218 223 239 248 260 263 250 245 269 275 288 301 306 296 275 254 255 273 277 285 288 291 304 309 307 300 295
140 150 163 168 177 181 185 195 201 213 221 225 227 228 246 257 261 259 249 254 271 278 283 293 316 326 321 284 240 263 280 285 297 302 300 303 304 305
144 161 174 181 183 184 190 199 216 227 221 221 226 232 241 248 251 258 260 265 272 277 279 282 295 311 316 312 298 262 278 298 303 304 299 295 296 301
157 172 182 183 182 187 195 207 219 223 221 224 228 233 231 235 249 257 257 257 269 277 287 288 273 263 261 286 295 294 295 291 294 301 302 299 286 289
173 178 180 181 187 192 199 205 211 219 222 221 227 231 228 225 244 251 256 275 275 268 282 283 275 298 282 283 292 291 293 300 300 295 299 306 308 308
176 181 185 186 189 194 200 206 215 223 224 223 226 230 228 225 240 248 250 258 257 256 266 279 299 316 309 280 291 297 300 307 312 311 303 296 307 314
178 180 183 187 191 194 199 211 219 226 223 220 222 227 227 233 241 244 246 245 253 265 278 297 315 317 287 271 284 293 300 308 310 319 312 320 323 316